Regional Weather Roundup
Issued by NWS

Home | Current Version | Previous Version | Text Only | Print | Product List | Glossary Off
Versions: 1 2 3 4 5 6 7 8 9 10 11 12 13 14 15 16 17 18 19 20 21 22 23 24 25 26 27 28 29 30 31 32 33 34 35 36 37 38 39 40 41 42 43 44 45 46 47 48 49 50

000
ASUS43 KFSD 272202
RWRSD

WEATHER ROUNDUP FOR SOUTH DAKOTA
NATIONAL WEATHER SERVICE SIOUX FALLS SD
500 PM CDT FRI MAR 27 2015

NOTE: "FAIR" INDICATES FEW OR NO CLOUDS BELOW 12,000 FEET WITH NO
SIGNIFICANT WEATHER AND/OR OBSTRUCTIONS TO VISIBILITY.


SDZ001>005-009-010-012>017-272300-
NORTHWEST AND NORTH CENTRAL SOUTH DAKOTA

CITY           SKY/WX    TMP DP  RH WIND       PRES   REMARKS
BUFFALO          N/A     67  34  29 NW22G28   29.84F
FAITH            N/A     67  32  27 N21G32    29.87R
MOBRIDGE       PTSUNNY   47  34  60 SE14      29.88F
$$

SDZ012>016-024>037-041>051-057-063-072>074-272300-
SOUTHWEST AND SOUTH CENTRAL SOUTH DAKOTA

CITY           SKY/WX    TMP DP  RH WIND       PRES   REMARKS
RAPID CTY ARPT PTSUNNY   69  36  29 N24G30    29.92F
PIERRE         SUNNY     50  35  56 SE12      29.92F
CUSTER         MOSUNNY   59  29  31 NW14G23   30.01S
ELLSWORTH AFB  PTSUNNY   68  37  32 NW16G28   29.92S
PHILIP         PTSUNNY   67  34  29 NW7       29.87F
PINE RIDGE     PTSUNNY   68  34  28 N15G23    29.93F
SPEARFISH      FAIR      63  34  34 NW21G33   29.97F
WINNER         FAIR      57  34  41 SE12      29.91F
$$

SDZ004>011-016>023-039-040-272300-
NORTHEAST SOUTH DAKOTA

CITY           SKY/WX    TMP DP  RH WIND       PRES   REMARKS
ABERDEEN       CLOUDY    31  26  82 S18       30.03F WCI  19
WATERTOWN      LGT SNOW  32  22  66 S9        30.04F WCI  24
SISSETON         N/A     35  20  54 SW9       30.07S WCI  28
$$

SDZ017-020-022-023-036>040-048>070-272300-
SOUTHEAST SOUTH DAKOTA

CITY           SKY/WX    TMP DP  RH WIND       PRES   REMARKS
SIOUX FALLS    CLOUDY    36  16  44 SW9       30.09F
HURON          CLOUDY    31  28  89 SE13G18   30.04F WCI  21
MITCHELL       CLOUDY    34  27  75 SE13      30.06F WCI  25
YANKTON        CLOUDY    36  25  64 S13       30.09F
$$

ABBREVIATIONS USED IN REMARKS
   TC - TEMPERATURE IN CELSIUS
  WCI - WIND CHILL INDEX
   HX - HEAT INDEX
  VSB - VISIBILITY




USA.gov is the U.S. government's official web portal to all federal, state and local government web resources and services.